EW0322 Weather Reports


Display with metric or nautical units.
time (UTC)temp
F
wind
direction
speed
MPH
gust
MPH
rain 1hr
in
rain 24hr
in
rain mn
in
humidity
%
barometer
mb
20260902194556 95 234 0.0 9.0 0.00 0.00 0.00 25 1005.6
20260902193052 95 234 0.0 8.0 0.00 0.00 0.00 25 1005.8
20260902191552 96 238 1.0 7.0 0.00 0.00 0.00 24 1005.9
20260902190047 95 230 1.0 5.0 0.00 0.00 0.00 25 1006.1
20260902184545 95 235 0.0 6.0 0.00 0.00 0.00 26 1006.5
20260902183047 92 229 2.0 7.0 0.00 0.00 0.00 27 1006.8
20260902181537 92 232 2.0 6.0 0.00 0.00 0.00 27 1007.0
20260902180033 90 230 2.0 7.0 0.00 0.00 0.00 28 1007.4
20260902174530 90 229 3.0 9.0 0.00 0.00 0.00 28 1007.5
20260902173028 90 232 3.0 7.0 0.00 0.00 0.00 30 1007.7
20260902171526 89 236 0.0 8.0 0.00 0.00 0.00 30 1007.7
20260902170023 89 226 1.0 8.0 0.00 0.00 0.00 31 1007.8
20260902164519 87 232 3.0 6.0 0.00 0.00 0.00 32 1007.9
20260902163015 87 237 2.0 8.0 0.00 0.00 0.00 33 1008.0
20260902161511 87 230 0.0 8.0 0.00 0.00 0.00 33 1007.9
20260902160009 86 234 3.0 9.0 0.00 0.00 0.00 34 1007.8
20260902154501 84 234 3.0 9.0 0.00 0.00 0.00 36 1007.9
20260902153100 83 234 2.0 9.0 0.00 0.00 0.00 38 1007.8
20260902151600 82 233 2.0 8.0 0.00 0.00 0.00 40 1007.9
20260902150049 81 238 1.0 9.0 0.00 0.00 0.00 41 1007.8
20260902144548 81 240 4.0 7.0 0.00 0.00 0.00 43 1007.8
20260902143040 80 240 2.0 7.0 0.00 0.00 0.00 43 1007.7
20260902141536 79 240 0.0 0.0 0.00 0.00 0.00 45 1007.6
20260902140036 78 240 0.0 2.0 0.00 0.00 0.00 46 1007.6
20260902134527 77 240 0.0 4.0 0.00 0.00 0.00 46 1007.4
20260902133022 77 240 0.0 1.0 0.00 0.00 0.00 46 1007.2
20260902131518 76 240 0.0 3.0 0.00 0.00 0.00 48 1007.1
20260902130016 76 240 0.0 0.0 0.00 0.00 0.00 48 1006.9
20260902124517 76 240 0.0 0.0 0.00 0.00 0.00 49 1006.7
20260902123010 76 240 0.0 0.0 0.00 0.00 0.00 48 1006.5
20260902121508 76 240 0.0 3.0 0.00 0.00 0.00 48 1006.4
20260902120010 76 240 1.0 4.0 0.00 0.00 0.00 48 1006.5
20260902114607 76 240 0.0 3.0 0.00 0.00 0.00 47 1006.4
20260902113005 77 240 1.0 3.0 0.00 0.00 0.00 47 1006.4
20260902111504 77 240 0.0 1.0 0.00 0.00 0.00 46 1006.3
20260902110003 77 240 0.0 5.0 0.00 0.00 0.00 46 1006.2
20260902104600 78 240 2.0 5.0 0.00 0.00 0.00 45 1006.2
20260902103106 78 240 2.0 5.0 0.00 0.00 0.00 44 1006.2
20260902101559 79 240 2.0 7.0 0.00 0.00 0.00 43 1006.1
20260902100055 79 240 0.0 5.0 0.00 0.00 0.00 43 1006.1
20260902094553 79 240 2.0 5.0 0.00 0.00 0.00 42 1006.0
20260902093121 80 240 3.0 5.0 0.00 0.00 0.00 41 1006.1
20260902091554 80 240 1.0 7.0 0.00 0.00 0.00 40 1006.2
20260902090056 80 240 2.0 7.0 0.00 0.00 0.00 40 1006.2
20260902084554 81 240 1.0 7.0 0.00 0.00 0.00 38 1006.1
20260902083051 81 240 1.0 7.0 0.00 0.00 0.00 37 1006.2
20260902081557 81 240 0.0 4.0 0.00 0.00 0.00 36 1006.3
20260902080043 81 240 0.0 0.0 0.00 0.00 0.00 36 1006.3
20260902074540 82 240 0.0 3.0 0.00 0.00 0.00 36 1006.4
20260902073039 81 240 0.0 2.0 0.00 0.00 0.00 36 1006.6
20260902071538 82 240 0.0 1.0 0.00 0.00 0.00 35 1006.5
20260902070035 82 240 0.0 0.0 0.00 0.00 0.00 35 1006.4
20260902064533 83 240 0.0 1.0 0.00 0.00 0.00 34 1006.3
20260902063033 83 240 0.0 0.0 0.00 0.00 0.00 34 1006.3
20260902061542 83 240 0.0 0.0 0.00 0.00 0.00 34 1006.3
20260902060025 84 240 0.0 2.0 0.00 0.00 0.00 33 1006.4
20260902054528 85 240 0.0 1.0 0.00 0.00 0.00 32 1006.4
20260902053024 85 240 0.0 3.0 0.00 0.00 0.00 31 1006.3
20260902051523 85 240 0.0 2.0 0.00 0.00 0.00 31 1006.3
20260902050023 85 240 0.0 1.0 0.00 0.00 0.00 31 1006.4
20260902044522 85 240 0.0 0.0 0.00 0.00 0.00 31 1006.5
20260902043021 86 240 0.0 0.0 0.00 0.00 0.00 30 1006.3
20260902041522 86 240 0.0 3.0 0.00 0.00 0.00 30 1006.3
20260902040021 86 240 0.0 2.0 0.00 0.00 0.00 30 1006.2
20260902034522 87 240 0.0 0.0 0.00 0.00 0.00 30 1006.1
20260902033020 87 240 0.0 1.0 0.00 0.00 0.00 29 1005.9
20260902031520 87 240 0.0 0.0 0.00 0.00 0.00 29 1005.7
20260902030019 88 240 0.0 0.0 0.00 0.00 0.00 29 1005.4
20260902024522 88 240 0.0 0.0 0.00 0.00 0.00 28 1005.1
20260902023017 89 240 0.0 5.0 0.00 0.00 0.00 28 1004.8
20260902021517 89 240 0.0 3.0 0.00 0.00 0.00 28 1004.6
20260902020021 89 240 3.0 7.0 0.00 0.00 0.00 28 1004.4
20260902014517 90 240 0.0 1.0 0.00 0.00 0.00 27 1004.2
20260902013015 91 240 0.0 2.0 0.00 0.00 0.00 27 1004.0
20260902011515 91 240 0.0 5.0 0.00 0.00 0.00 27 1003.9
20260902010018 91 240 0.0 3.0 0.00 0.00 0.00 27 1003.9
20260902004513 92 240 1.0 7.0 0.00 0.00 0.00 26 1003.8
20260902003013 92 240 3.0 9.0 0.00 0.00 0.00 27 1003.7
20260902001515 93 238 2.0 8.0 0.00 0.00 0.00 25 1003.8
20260902000014 93 240 1.0 5.0 0.00 0.00 0.00 25 1003.9
20260901234511 94 239 1.0 8.0 0.00 0.00 0.00 24 1003.9
20260901233015 95 242 2.0 5.0 0.00 0.00 0.00 23 1003.9
20260901231511 95 233 3.0 7.0 0.00 0.00 0.00 24 1003.9
20260901230010 94 227 2.0 8.0 0.00 0.00 0.00 25 1003.7
20260901224508 94 226 3.0 7.0 0.00 0.00 0.00 25 1003.9
20260901223007 94 240 2.0 9.0 0.00 0.00 0.00 25 1004.1
20260901221506 94 232 2.0 10.0 0.00 0.00 0.00 24 1004.2
20260901220003 94 226 0.0 7.0 0.00 0.00 0.00 24 1004.2
20260901214502 93 223 1.0 7.0 0.00 0.00 0.00 25 1004.6
20260901213115 94 232 1.0 5.0 0.00 0.00 0.00 24 1004.8
20260901211559 93 236 1.0 9.0 0.00 0.00 0.00 24 1004.9
20260901210058 93 233 2.0 11.0 0.00 0.00 0.00 24 1005.5
20260901204556 93 206 4.0 8.0 0.00 0.00 0.00 24 1005.6
20260901203053 92 231 0.0 4.0 0.00 0.00 0.00 26 1005.9
20260901201552 92 234 4.0 8.0 0.00 0.00 0.00 26 1006.1
20260901200050 92 236 4.0 8.0 0.00 0.00 0.00 26 1006.3